TimeEDT,TemperatureF,Dew PointF,Humidity,Sea Level PressureIn,VisibilityMPH,Wind Direction,Wind SpeedMPH,Gust SpeedMPH,PrecipitationIn,Events,Conditions,WindDirDegrees,DateUTC
12:52 AM,73.0,66.9,81,30.12,10.0,South,11.5,-,N/A,,Mostly Cloudy,170,2013-06-01 04:52:00
1:52 AM,72.0,66.0,81,30.12,10.0,South,9.2,-,N/A,,Scattered Clouds,190,2013-06-01 05:52:00
2:52 AM,72.0,66.0,81,30.12,10.0,SSW,5.8,-,N/A,,Mostly Cloudy,200,2013-06-01 06:52:00
3:52 AM,71.1,66.0,84,30.12,10.0,South,8.1,-,N/A,,Mostly Cloudy,190,2013-06-01 07:52:00
4:52 AM,69.1,66.0,90,30.12,10.0,South,4.6,-,N/A,,Scattered Clouds,190,2013-06-01 08:52:00
5:52 AM,66.9,64.9,93,30.13,10.0,Calm,Calm,-,N/A,,Scattered Clouds,0,2013-06-01 09:52:00
6:52 AM,68.0,64.9,90,30.14,10.0,Calm,Calm,-,N/A,,Scattered Clouds,0,2013-06-01 10:52:00
7:52 AM,71.1,66.9,87,30.13,10.0,SSW,10.4,-,N/A,,Scattered Clouds,200,2013-06-01 11:52:00
8:52 AM,73.0,66.9,81,30.14,10.0,SSW,9.2,-,N/A,,Scattered Clouds,210,2013-06-01 12:52:00
9:52 AM,75.9,66.0,71,30.14,10.0,SSW,11.5,-,N/A,,Mostly Cloudy,200,2013-06-01 13:52:00
10:52 AM,78.1,64.9,64,30.13,10.0,SSW,10.4,-,N/A,,Overcast,210,2013-06-01 14:52:00
11:52 AM,79.0,64.9,62,30.13,10.0,SSW,10.4,-,N/A,,Mostly Cloudy,200,2013-06-01 15:52:00
12:52 PM,80.1,64.0,58,30.12,10.0,South,10.4,-,N/A,,Scattered Clouds,190,2013-06-01 16:52:00
1:52 PM,82.0,64.0,54,30.10,10.0,South,9.2,-,N/A,,Scattered Clouds,180,2013-06-01 17:52:00
2:52 PM,84.0,64.0,51,30.08,10.0,SW,10.4,16.1,N/A,,Mostly Cloudy,230,2013-06-01 18:52:00
3:52 PM,84.0,63.0,49,30.06,10.0,SW,11.5,17.3,N/A,,Mostly Cloudy,230,2013-06-01 19:52:00
4:52 PM,82.9,63.0,51,30.05,10.0,SW,5.8,-,N/A,,Mostly Cloudy,230,2013-06-01 20:52:00
5:52 PM,84.9,63.0,48,30.04,10.0,WSW,9.2,-,N/A,,Mostly Cloudy,240,2013-06-01 21:52:00
6:52 PM,82.9,63.0,51,30.03,10.0,SW,8.1,-,N/A,,Scattered Clouds,220,2013-06-01 22:52:00
7:52 PM,81.0,64.0,56,30.02,10.0,SSW,4.6,-,N/A,,Scattered Clouds,210,2013-06-01 23:52:00
8:52 PM,78.1,64.9,64,30.02,10.0,South,4.6,-,N/A,,Mostly Cloudy,190,2013-06-02 00:52:00
9:52 PM,77.0,64.0,64,30.03,10.0,South,6.9,-,N/A,,Mostly Cloudy,170,2013-06-02 01:52:00
10:52 PM,77.0,64.0,64,30.05,10.0,South,9.2,-,N/A,,Partly Cloudy,190,2013-06-02 02:52:00
11:52 PM,75.0,64.0,69,30.06,10.0,South,10.4,-,N/A,,Partly Cloudy,180,2013-06-02 03:52:00